Weather Roundup
Issued by NWS Chicago, IL

Home | Current Version | Previous Version | Graphics & Text | Print | Product List | Glossary On
Versions: 1 2 3 4 5 6 7 8 9 10 11 12 13 14 15 16 17 18 19 20 21 22 23 24 25 26 27 28 29 30 31 32 33 34 35 36 37 38 39 40 41 42 43 44 45 46 47 48 49 50
000
NZUS59 KLOT 020310
HRRLOT

CHICAGO AREA WEATHER ROUNDUP
NATIONAL WEATHER SERVICE CHICAGO/ROMEOVILLE IL
900 PM CST SUN MAR 01 2015

NOTE: "FAIR" INDICATES FEW OR NO CLOUDS BELOW 12,000 FEET WITH NO
SIGNIFICANT WEATHER AND/OR OBSTRUCTIONS TO VISIBILITY.

* THESE STATIONS ARE NOT UNDER NWS QUALITY CONTROL. THEY ALSO MAY NOT
  REPORT WEATHER SUCH AS PRECIPITATION OR FOG.

ILZ005-006-012>014-019>023-020400-
NORTHEAST ILLINOIS

CITY           SKY/WX    TMP DP  RH WIND       PRES   REMARKS
OHARE          CLEAR     19  13  77 W13       30.29R WCI   6
MIDWAY         CLEAR     21  14  74 W14       30.31R WCI   8
AURORA         CLEAR     16  10  77 W9        30.33R WCI   4
LANSING*       CLEAR     19  13  79 W7        30.32R WCI   9
JOLIET*        PTCLDY    17  11  80 W5        30.35R WCI  10
WAUKEGAN       CLEAR     21  15  78 W10G18    30.26R WCI  10
DUPAGE AIRPORT CLEAR     17  12  80 W12       30.31R WCI   4
WHEELING       CLEAR     20  14  77 W8        30.31R WCI  10
KANKAKEE*      PTCLDY    15  12  88 W10       30.36R WCI   2
MORRIS*        PTCLDY    15  12  88 W8        30.34R WCI   4
LEWIS AIRPORT* PTCLDY    17  12  81 W12       30.33R WCI   4
NORTHERLY IS     N/A     22  15  75 W10         N/A  WCI  11
$$

WIZ051-052-058>065-066-070>072-020400-
SOUTHEAST WISCONSIN

CITY           SKY/WX    TMP DP  RH WIND       PRES   REMARKS
MILWAUKEE      CLEAR     23  14  68 W12       30.25R WCI  12
KENOSHA*       CLEAR     21  14  74 W16G24    30.26R WCI   7
RACINE*        CLEAR     21  13  71 W13G20    30.27R WCI   9
BURLINGTON     CLEAR     19  11  70 W12G17    30.28  WCI   6
WAUKESHA       CLEAR     21  12  68 W15G22    30.26R WCI   8
WEST BEND      CLEAR     23  10  58 W17       30.23R WCI   9
$$

INZ001>003-010>013-019-020-020400-
NORTHWEST INDIANA

CITY           SKY/WX    TMP DP  RH WIND       PRES   REMARKS
GARY*          CLEAR     22  12  65 SW6       30.33R WCI  15
MICHIGAN CITY* NOT AVBL
RENSSELAER*    NOT AVBL
VALPARAISO     CLEAR     18  13  80 W12       30.32R WCI   5
$$

LMZ740>746-020400-
SOUTHERN LAKE MICHIGAN

STATION/POSITION TIME  SKY/WX   TEMP WIND        PRES    VSBY
                                AIR  DIR/SP/G
                 (UTC)          (F)  (DEG/KT/KT) (MB)    (MI)
HARRISON CRIB    0300            22  250/ 18/ 22   N/A
BURNHAM HARBOR   0300            22  260/ 12/ 12   N/A
CALUMET HARBOR   0300            20  230/  6/ 10 1025.0S
BURNS HARBOR     NOT AVBL
MICHIGAN CITY    0300            19  220/ 13/ 15   N/A
$$

ABBREVIATIONS USED IN REMARKS
   TC - TEMPERATURE IN CELSIUS
  WCI - WIND CHILL INDEX
   HX - HEAT INDEX
  VSB - VISIBILITY
$$



USA.gov is the U.S. government's official web portal to all federal, state and local government web resources and services.